Zurück zum Katalog

ATLAS CENTAUR 2 DEB

AktivLEO
NORAD 698·DEBRIS·🇺🇸 United States

Gestartet Nov 27, 1963 von Cape Canaveral Space Force Station

Loading…

Nächste Überflüge (nächste 24 Stunden)

TLE

AktuellSource: Space-Track

Epoche: Sep 14, 2026, 01:26 UTC

1 00698U 63047D   26257.05995151  .00000338  00000-0  94746-4 0  9998
2 00698  29.9209 217.6454 0528579 167.6959 193.7102 13.74427771 91291

Verfolge ATLAS CENTAUR 2 DEB in Echtzeit mit AllMySat

Download on the App Store